Tracking 31027 objects as of 19-Jul-2025
HD Live streaming from Space Station
objects crossing your sky now

NOAA 17 DEB

Track NOAA 17 DEB now!
10-day predictions


NORAD ID: 48725
Int'l Code: 2002-032BK
Perigee: 721.0 km
Apogee: 802.2 km
Inclination: 98.7 °
Period: 99.9 minutes
Semi major axis: 7132 km
RCS: Unknown
Launch date: June 24, 2002
Source: United States (US)
Launch site: AIR FORCE WESTERN TEST RANGE (AFWTR)

Note: This is SATELLITE DEBRIS
Your satellite tracking list
RESURS O1 DEB
Track 1 satellite(s)




NASA's NSSDC Master Catalog

Two Line Element Set (TLE):
1 48725U 02032BJ  25199.05122069  .00007485  00000-0  22861-2 0  9999
2 48725  98.6984 136.8897 0056886 261.2957  98.1785 14.41221373224485
Source of the keplerian elements: AFSPC